GFSNGP_con_3kmhel_132.txt.gz
Helicity
211 182 153 147 180 193 242 244 310 262 263 226 235 243 259 258 206 176 161 150 139 84 45 55 21 9 21 19 7 -6 -9 -9 -12 -3 0 14 11 30 75 83 21 -23 69 202
152 151 114 126 172 149 201 208 242 207 91 114 165 280 297 304 238 196 169 146 116 76 58 17 28 33 23 20 6 -12 4 9 18 31 58 57 61 52 54 53 38 43 27 -23
206 115 91 74 130 144 176 173 183 171 150 146 124 172 238 280 220 191 147 130 96 64 28 9 33 34 30 18 9 -1 8 29 43 59 64 80 77 77 62 43 32 67 80 90
123 80 69 96 106 106 133 109 127 124 143 116 151 249 283 233 213 145 123 107 78 46 22 35 29 31 27 23 16 18 17 23 36 60 73 97 111 101 59 16 6 16 48 61
133 141 135 104 117 102 99 52 69 110 177 160 215 259 212 186 155 130 111 88 57 6 22 38 39 26 21 37 28 22 14 1 10 16 27 34 50 54 10 2 7 2 11 44
231 137 120 91 115 70 54 49 40 85 114 137 174 149 85 159 153 129 104 66 17 15 46 45 35 22 29 28 23 18 16 -7 -17 -6 0 9 -2 -10 -10 1 1 13 32 45
200 193 127 111 127 107 121 26 54 75 107 138 107 77 113 209 146 127 96 51 23 55 50 35 22 19 39 21 -4 -29 -13 1 11 -8 -3 -12 -16 -3 -5 -2 13 26 29 42
209 194 63 154 146 84 58 57 57 96 116 141 135 159 195 191 164 130 89 41 48 64 60 47 38 34 30 19 -30 -16 -5 3 -5 -5 -6 4 5 5 15 10 15 27 27 32
208 149 171 62 71 108 80 74 42 83 121 187 216 155 195 175 145 112 61 49 51 74 80 82 59 38 37 1 -5 9 16 -8 -25 -32 -22 -13 -12 -14 -26 -9 -14 -2 9 6
238 177 146 98 129 96 107 89 98 112 186 207 199 202 201 179 145 113 66 72 71 82 85 86 77 60 36 9 19 32 22 5 -5 -26 -18 -38 -31 -22 -40 -47 -46 -40 -29 -15
175 99 130 53 83 127 144 150 181 213 192 210 237 212 231 190 166 119 85 86 82 78 78 87 79 71 39 30 30 31 19 9 -7 -15 -29 -41 -38 -54 -52 -47 -38 -66 -54 -40
114 124 77 34 55 119 146 130 158 228 225 204 226 246 233 198 168 128 102 99 98 85 85 79 80 69 51 33 30 20 18 1 -24 -29 -37 -35 -52 -58 -26 -4 15 15 18 -14
106 126 124 82 68 77 86 93 121 163 193 250 212 245 251 236 171 124 116 102 90 87 89 86 85 83 69 55 39 30 6 -4 -17 -20 -28 -44 -58 -55 -42 -41 -15 2 20 25
138 125 114 82 70 80 102 125 140 188 208 236 272 260 262 237 191 141 110 99 108 116 106 97 90 86 69 51 45 20 8 4 -12 -19 -32 -42 -43 -43 -43 -47 -47 -31 -24 21
99 112 93 85 113 123 145 190 174 177 193 242 268 290 277 247 211 156 143 132 124 135 121 103 95 97 62 28 29 21 17 4 -5 -13 -23 -23 -16 -3 -9 -9 -2 1 9 21
104 97 86 76 91 132 173 177 185 177 176 227 289 289 289 225 237 194 156 147 141 103 101 104 102 79 70 57 46 37 31 16 11 5 6 18 20 22 22 20 27 27 32 23
112 82 77 88 109 139 142 155 160 175 193 231 278 342 288 222 257 210 152 132 139 134 114 105 96 81 65 42 46 34 27 25 31 32 29 26 30 36 27 33 37 34 30 34
98 71 58 91 115 140 147 171 178 183 222 261 283 249 222 215 214 182 133 131 162 161 128 106 99 92 69 48 51 28 32 33 35 33 35 53 57 57 51 47 55 59 54 66
69 73 78 90 95 116 145 178 191 226 273 237 185 154 154 220 223 186 123 126 133 134 91 93 89 93 87 62 64 58 57 60 58 54 60 67 77 73 71 71 68 73 74 77
67 86 97 109 116 128 165 191 226 216 192 164 167 165 174 219 229 197 118 103 100 114 118 98 91 89 85 76 78 73 76 74 78 79 84 85 88 87 82 83 79 85 90 88
79 101 134 107 99 113 154 180 193 178 153 135 123 121 139 191 213 219 180 117 69 105 104 93 97 101 87 82 87 91 95 99 98 88 94 95 93 89 90 90 99 103 100 93
77 104 90 93 92 108 116 136 154 160 135 128 144 163 166 180 205 195 148 111 104 109 126 114 109 105 99 101 103 106 104 105 98 102 103 95 92 98 96 96 105 102 103 93
69 69 81 83 96 113 128 129 138 137 126 120 129 135 121 137 174 191 147 95 112 110 123 121 124 134 132 128 120 117 112 113 115 114 102 96 98 97 94 98 102 105 95 84
60 62 73 83 107 112 118 105 121 112 120 116 117 120 142 163 145 125 108 116 137 135 131 129 139 149 151 134 125 116 121 114 109 101 105 114 102 92 105 114 107 89 84 86
65 58 63 70 76 74 93 105 124 117 122 120 115 104 125 150 187 129 115 121 140 152 160 153 164 162 147 131 122 119 103 97 92 101 94 91 97 115 112 100 90 86 84 82
53 50 47 46 55 68 79 85 104 113 134 145 119 107 125 136 126 131 135 160 167 179 175 160 155 156 143 135 115 109 103 104 101 89 96 112 118 111 101 97 90 85 79 71
58 63 69 71 62 66 76 87 108 115 127 138 151 117 109 122 129 156 171 179 183 186 181 172 164 159 137 126 125 118 102 89 85 108 122 113 105 101 96 87 80 75 72 74

GFSNGP_con_3kmhel_135.txt.gz
Helicity
161 186 199 159 132 143 225 190 185 179 173 164 189 165 143 200 289 252 172 138 130 123 113 86 79 16 14 11 2 -9 -16 -17 -6 -3 4 27 40 41 66 59 70 67 32 86
161 160 147 111 140 171 212 164 220 195 119 81 37 88 134 192 270 220 175 149 140 116 101 57 9 28 15 16 3 -2 -7 -2 8 15 36 43 61 59 73 51 79 91 98 77
133 123 124 93 150 156 125 153 161 184 110 116 99 74 105 161 208 194 160 141 105 107 81 44 18 29 15 11 -4 -4 -3 2 13 32 46 64 47 72 86 81 119 93 97 101
140 112 136 153 96 73 108 111 151 118 101 139 111 119 127 136 194 179 152 116 97 81 43 25 40 29 23 17 10 3 -12 -10 -3 13 5 11 7 14 6 -25 -16 -1 32 38
170 153 109 52 102 86 83 76 78 52 90 110 105 122 118 140 144 150 119 102 86 64 43 44 37 29 35 37 19 16 3 -7 -12 -22 -19 -11 -18 -40 -48 -28 -17 -13 -18 28
182 160 138 113 93 133 150 57 80 58 54 74 81 68 76 135 148 160 129 89 80 50 52 54 40 39 43 45 29 12 7 -1 -18 -19 -20 -22 -39 -44 -51 -46 -44 -25 11 15
137 156 131 111 169 167 93 42 60 49 54 77 75 65 80 190 166 140 123 95 59 47 49 43 29 40 46 42 43 6 11 10 -4 -11 -12 -25 -24 -34 -50 -40 -27 -4 21 41
169 178 137 165 220 148 88 65 55 49 62 72 98 110 162 192 177 159 150 93 51 51 65 37 34 54 42 49 3 10 19 17 14 0 -19 -28 -30 -16 -21 -33 -10 -11 -17 -27
151 121 143 149 151 159 104 74 56 52 58 97 148 133 160 172 160 149 129 66 46 64 64 49 40 48 45 28 4 22 28 7 -11 -6 -5 -18 -12 -21 -15 -2 -6 -8 -6 -3
163 153 164 160 165 139 105 83 69 71 101 122 150 162 178 191 159 146 106 77 71 72 80 75 61 58 45 22 26 38 32 20 15 17 7 6 -3 -13 -9 -6 -12 -14 -15 -7
176 120 168 99 119 128 129 119 114 122 114 128 187 169 207 204 170 142 111 82 81 78 76 70 66 65 46 40 45 53 49 37 26 13 1 -12 -24 -30 -36 -34 -33 -42 -36 -15
116 127 162 98 68 25 85 104 95 120 140 134 166 195 192 193 173 170 131 99 86 89 84 79 71 69 52 44 45 52 51 31 10 -3 -16 -28 -40 -49 -14 -13 4 8 17 -3
105 131 116 79 48 44 40 67 86 89 107 133 142 169 195 226 192 182 160 108 90 89 90 85 77 75 62 52 46 41 34 19 9 5 -3 -11 -25 -27 -29 -24 7 28 39 34
122 108 89 82 79 72 86 101 107 113 115 116 153 188 210 244 238 193 166 114 102 109 105 97 94 94 78 65 60 53 49 38 18 4 -7 -15 -17 -19 -24 -22 -13 -6 22 38
112 119 115 101 97 88 93 113 129 134 143 154 155 193 225 261 264 210 190 148 114 119 116 102 97 89 72 70 62 47 33 17 12 7 -6 -8 -10 -11 -13 -5 -1 1 7 23
102 105 92 73 67 73 95 116 129 139 149 159 171 192 217 267 308 209 209 189 127 101 98 103 98 89 60 57 60 54 50 35 14 5 -2 0 -1 3 7 12 20 24 29 30
112 75 68 67 67 81 82 111 133 143 152 153 166 233 301 339 284 222 225 195 121 121 106 104 100 86 73 63 53 45 40 33 32 21 17 13 17 18 20 30 28 30 42 50
122 93 64 67 64 87 111 131 142 144 153 171 231 295 308 276 227 224 264 247 176 144 99 107 105 93 83 68 63 56 49 42 34 36 33 30 34 39 50 50 52 54 52 62
121 103 85 73 72 84 106 130 137 167 228 257 252 244 223 201 203 247 268 244 171 119 95 116 101 91 78 67 70 64 59 54 52 54 52 48 49 62 64 66 72 74 70 71
83 64 64 75 87 110 130 136 184 192 199 208 211 202 175 170 219 247 241 197 115 91 117 101 97 86 77 71 77 75 70 66 66 67 61 66 73 76 75 88 85 83 80 80
48 74 99 98 95 91 103 146 166 165 164 171 177 143 141 167 189 223 221 198 108 82 112 107 103 106 97 97 94 92 87 86 83 80 76 84 88 86 88 89 88 88 86 89
69 90 78 80 80 81 85 112 126 142 140 129 138 160 174 169 162 165 166 147 89 86 104 97 100 102 106 110 106 102 98 97 98 91 98 96 88 90 101 94 87 91 96 88
83 70 69 72 72 80 93 94 94 108 108 112 127 134 145 128 121 159 143 117 117 92 97 99 110 122 126 117 110 105 106 107 104 112 108 101 102 98 94 93 102 98 86 81
58 57 59 65 81 87 82 66 78 79 91 92 101 125 158 159 115 107 148 155 122 118 97 116 126 134 134 125 119 116 111 105 117 113 112 109 97 94 103 106 94 84 80 84
47 51 53 60 60 55 73 84 91 88 91 90 98 104 112 107 116 120 137 132 117 115 123 132 144 149 140 127 118 112 108 117 106 100 98 93 98 104 104 93 82 80 82 79
42 41 41 38 41 55 65 70 77 81 93 109 108 109 105 109 133 164 158 151 130 136 147 143 148 147 138 128 120 127 116 107 100 99 95 101 108 105 91 81 74 76 81 81
43 45 44 45 43 50 55 63 79 83 89 110 130 116 125 133 129 137 147 139 145 146 156 154 146 140 137 139 136 117 107 102 98 96 99 109 97 84 76 71 76 82 81 79

GFSNGP_con_3kmhel_141.txt.gz
Helicity
191 178 44 52 76 66 93 76 71 70 50 31 18 37 78 161 180 194 285 210 158 163 165 134 113 108 65 13 8 17 24 24 15 -6 -1 9 18 19 22 7 19 16 9 13
153 99 94 97 70 100 85 83 69 44 32 2 15 125 173 129 143 122 212 189 165 165 165 141 116 74 9 24 15 32 33 29 12 -3 -1 -8 -6 -5 2 6 8 36 19 11
43 73 74 117 83 85 56 31 48 64 31 28 79 109 139 132 110 94 143 169 172 162 172 141 105 44 29 43 33 22 36 35 14 11 8 -2 -12 -13 -16 -11 -9 -4 11 -6
78 97 119 68 106 77 48 30 44 55 24 40 107 181 137 111 74 114 140 179 179 181 172 121 94 54 52 46 47 32 45 35 20 15 18 3 -11 -17 -18 -16 -9 -2 7 14
93 67 64 66 64 85 98 64 51 36 34 55 214 124 72 67 83 118 152 207 222 199 148 123 109 64 63 66 59 52 60 55 35 22 19 15 2 -5 -12 -14 -13 -9 3 10
85 72 65 40 169 179 132 61 61 81 69 110 130 110 163 99 87 193 316 310 261 190 144 154 109 77 109 88 81 71 77 67 55 48 34 27 20 9 -2 -12 -10 -16 -4 12
74 85 85 42 162 154 111 103 151 88 109 108 103 131 100 95 126 186 285 312 229 224 195 131 113 93 102 92 89 84 89 68 71 64 53 43 28 11 9 6 4 -0 -8 -10
87 79 70 73 198 118 68 107 94 91 127 166 186 145 145 191 231 165 205 237 207 216 172 130 95 93 109 108 92 89 83 74 76 72 57 47 39 27 25 8 14 8 3 2
70 67 114 106 95 59 79 71 84 101 155 187 193 147 115 128 144 173 194 208 198 211 195 131 88 85 107 102 94 94 93 82 85 79 65 58 49 35 27 27 18 10 7 5
47 78 75 77 85 75 81 81 96 122 144 155 119 141 109 109 136 174 198 203 203 211 196 144 102 102 109 99 100 95 96 86 84 81 67 61 52 55 49 34 24 24 23 19
53 65 60 61 72 91 74 117 104 124 121 132 123 110 113 119 140 162 191 200 199 184 161 140 109 113 111 109 104 99 100 87 79 76 77 81 90 84 43 60 67 35 36 29
88 45 47 56 90 95 76 95 95 86 77 82 97 106 120 124 144 165 190 196 195 184 145 130 129 122 116 113 103 95 96 86 89 79 62 51 45 50 70 60 67 83 83 76
30 40 63 106 110 90 99 105 107 62 70 86 111 130 120 128 147 170 179 184 182 188 161 140 141 145 130 118 111 106 107 105 100 79 71 67 52 38 50 38 52 51 62 70
32 50 63 81 86 92 107 94 100 89 101 106 103 104 120 127 178 172 177 174 180 205 212 155 145 156 150 135 128 136 139 141 105 101 91 77 71 65 54 39 21 36 54 42
41 63 69 128 88 88 76 84 84 87 92 86 94 108 136 142 187 160 178 215 238 254 255 240 214 188 145 153 153 146 133 124 118 108 104 93 75 67 58 49 46 42 36 42
29 53 75 67 61 72 71 81 67 69 79 79 104 127 151 172 222 205 244 259 287 300 286 270 288 156 184 151 155 160 155 141 114 102 86 80 73 66 62 56 48 53 66 71
76 62 60 47 48 64 67 72 72 74 95 106 128 158 175 213 262 256 280 307 301 293 273 278 261 166 190 181 151 145 132 118 112 100 91 83 76 74 70 66 69 71 87 87
87 104 61 60 64 82 94 96 100 112 133 165 214 224 248 253 213 269 316 308 286 294 241 256 250 182 173 149 133 124 118 117 97 97 92 82 87 83 79 84 85 82 89 83
135 134 129 113 122 119 107 100 115 160 186 194 192 178 188 208 232 254 302 297 301 271 233 281 234 162 128 123 124 118 107 97 98 94 95 98 74 81 85 80 89 97 103 101
174 143 123 153 164 133 134 157 133 125 132 140 137 147 152 175 232 252 259 238 208 183 220 196 162 127 124 115 98 92 88 81 82 89 78 76 81 79 98 106 108 108 111 110
155 150 134 114 104 102 103 98 100 109 111 110 104 111 134 156 167 171 185 185 201 185 172 194 202 170 137 115 91 96 85 82 91 88 86 78 100 84 90 100 112 120 117 109
96 96 85 80 84 92 90 92 96 100 99 95 107 119 140 135 136 126 129 132 143 205 220 176 149 140 129 103 93 90 83 84 93 96 91 86 82 92 101 118 122 120 113 110
76 82 78 69 64 83 84 84 85 82 78 77 87 91 84 101 110 144 164 148 141 143 162 174 157 130 132 82 104 99 101 108 102 94 97 99 103 114 123 123 122 121 120 122
69 69 77 81 82 72 73 77 78 71 70 72 68 60 85 99 107 104 119 128 150 157 160 167 177 144 104 119 111 117 116 107 113 107 109 115 120 140 134 136 120 124 127 126
58 65 61 58 54 53 76 70 78 74 70 73 76 73 73 77 87 132 140 136 140 136 179 199 161 126 139 129 133 117 110 108 106 106 112 118 133 128 126 127 124 124 135 123
34 36 43 43 50 54 58 55 63 66 73 82 83 85 95 119 142 145 138 151 147 155 162 171 153 143 141 138 128 117 113 131 123 119 129 133 128 122 122 122 125 124 124 120
45 40 46 43 41 47 48 50 64 64 69 79 93 99 109 116 130 135 154 158 157 155 146 143 139 144 144 135 130 131 128 119 131 128 123 121 114 115 120 118 123 123 117 107

GFSNGP_con_3kmhel_147.txt.gz
Helicity
236 177 206 239 234 251 270 242 260 219 215 213 140 103 70 82 171 254 284 309 299 308 282 235 230 259 235 200 159 127 54 18 40 52 39 32 14 18 14 17 13 16 33 48
226 183 215 249 203 236 221 214 238 234 198 158 33 62 125 193 214 213 222 249 249 302 285 213 205 237 220 186 144 106 35 1 49 39 39 31 10 12 22 13 4 21 36 57
242 210 304 259 193 275 209 198 214 183 181 67 88 94 163 158 176 173 182 271 323 336 292 232 224 250 230 183 139 71 39 41 44 42 52 36 10 -0 -0 -1 -9 -5 29 43
186 229 195 172 126 113 125 114 99 117 117 103 102 157 183 202 165 126 179 266 326 353 314 297 280 278 220 176 130 65 47 41 32 40 43 31 25 13 -3 -28 -32 -33 -24 9
207 138 207 82 113 92 134 66 63 83 64 126 118 163 212 152 138 109 160 249 326 341 325 331 275 274 208 153 113 76 50 42 33 29 28 28 36 18 -7 -15 -38 -50 -59 -25
166 213 109 46 24 84 128 123 74 69 66 154 167 158 64 77 116 165 248 299 331 350 346 309 282 265 240 198 199 138 91 51 38 38 40 28 12 -1 -17 -13 -29 -45 -56 -17
240 175 135 115 105 99 254 141 165 187 209 188 169 96 82 140 174 192 273 334 391 419 385 380 376 396 364 319 239 173 154 132 102 71 67 67 58 34 16 12 -1 -3 3 11
204 279 190 55 90 138 94 164 196 238 225 209 153 143 151 160 171 212 287 340 365 400 383 358 363 370 310 254 196 175 148 143 125 98 81 71 78 84 95 60 48 33 27 30
72 75 29 82 96 107 123 188 211 215 180 163 133 94 116 153 189 209 244 275 304 356 356 319 296 285 274 207 185 158 137 133 125 110 125 136 137 138 157 142 103 83 54 46
146 100 48 56 65 135 248 215 203 205 157 136 123 123 132 198 222 235 228 238 259 317 310 288 262 239 231 206 168 150 136 126 124 155 178 150 142 138 146 131 109 78 72 55
118 86 84 110 80 46 138 155 129 133 124 124 180 138 155 206 223 222 199 202 229 248 261 252 251 239 233 206 172 150 131 120 130 154 166 167 131 127 130 104 82 74 52 34
108 95 114 83 116 133 131 145 150 154 162 142 164 171 173 174 189 234 217 204 196 190 221 232 239 236 229 203 171 164 153 140 146 142 145 166 153 126 129 113 108 92 68 61
89 88 89 104 127 102 103 125 96 71 79 156 178 193 181 145 138 214 218 214 189 172 187 222 239 233 217 203 167 159 158 146 133 140 144 122 114 100 92 93 92 83 68 60
101 120 146 134 95 90 105 95 127 176 163 155 175 187 173 144 115 190 232 215 180 174 193 202 213 206 200 201 171 141 144 140 152 157 135 119 115 101 88 70 57 49 61 51
91 81 99 104 96 68 97 124 121 128 157 185 201 201 216 183 152 171 230 270 222 223 251 219 213 209 201 192 179 191 203 199 211 221 231 194 158 102 64 62 49 44 38 72
52 55 73 84 102 135 146 127 127 106 118 178 202 199 154 153 153 208 275 310 292 253 302 279 250 210 179 182 257 288 322 288 258 242 211 181 152 138 125 102 112 97 77 48
54 62 50 95 177 158 129 130 105 104 117 173 159 161 184 203 250 308 335 316 298 276 326 362 338 289 237 284 315 320 309 273 244 202 164 127 142 117 122 141 133 104 61 48
12 30 122 141 174 164 202 219 229 213 202 210 213 205 197 225 289 356 393 424 453 440 424 452 479 434 350 323 314 290 291 247 169 181 183 161 162 160 143 125 118 89 75 54
75 265 334 329 215 226 249 263 251 219 209 220 231 206 200 248 316 365 395 421 427 422 364 444 487 458 340 280 260 253 239 211 187 165 194 142 161 131 134 130 137 105 53 76
438 408 372 328 314 295 286 243 224 210 194 212 200 216 240 252 271 298 295 292 277 290 343 353 331 280 230 212 220 188 164 133 178 198 164 160 139 152 160 155 136 116 127 119
376 304 246 234 239 244 241 196 172 177 161 142 153 158 173 199 220 240 253 231 212 233 247 249 224 195 177 198 193 184 167 164 192 166 135 145 128 132 135 123 120 140 142 136
169 170 181 195 191 180 157 146 146 128 125 131 142 152 176 176 175 166 158 168 168 188 183 164 142 137 135 164 166 188 195 184 183 168 174 176 164 156 129 122 129 137 146 148
158 151 133 116 104 108 114 112 106 104 101 101 112 119 121 105 119 141 139 126 159 153 140 118 114 139 145 176 195 205 196 179 175 142 125 141 125 126 151 152 149 170 180 193
94 89 95 98 85 86 97 91 91 86 88 92 94 86 90 83 60 60 117 137 137 141 119 106 130 152 152 158 180 203 204 189 188 200 195 187 190 193 184 194 196 189 184 189
68 71 75 74 66 65 85 83 87 85 86 79 67 50 43 27 48 98 123 118 122 120 109 125 156 159 138 156 182 194 215 220 213 197 176 173 170 178 172 170 189 178 177 168
64 55 46 41 51 74 67 71 68 66 67 67 52 35 37 80 107 134 138 133 124 123 149 154 161 157 158 182 203 211 200 183 172 154 151 164 161 157 157 172 166 166 169 188
21 40 44 42 60 60 53 51 57 49 65 69 61 59 78 144 144 152 147 131 149 154 171 159 164 185 205 212 210 198 184 182 177 171 172 168 161 167 185 167 144 150 167 152